Terminal Aerodrome Forecast
Issued by NWS

Current Version | Previous Version | Graphics & Text | Print | Product List | Glossary On
Versions: 1 2 3 4 5 6 7 8 9 10 11 12 13 14 15 16 17 18 19 20 21 22 23 24 25 26 27 28 29 30
000
FTUS41 KILN 281900 AAA
TAFLCK
TAF AMD
KLCK 281900Z 2819/2918 33012G17KT P6SM SCT045 BKN050
     FM282200 29010KT P6SM SCT050
     FM290500 18003KT P6SM FEW050 BKN250
     FM291400 15008KT P6SM VCSH BKN040=

USA.gov is the U.S. government's official web portal to all federal, state and local government web resources and services.